TimeCDT,TemperatureF,Dew PointF,Humidity,Sea Level PressureIn,VisibilityMPH,Wind Direction,Wind SpeedMPH,Gust SpeedMPH,PrecipitationIn,Events,Conditions,WindDirDegrees,DateUTC
12:53 AM,43.0,39.0,86,30.06,10.0,Calm,Calm,-,N/A,,Clear,0,2012-10-09 05:53:00
1:53 AM,39.9,37.9,93,30.06,10.0,Calm,Calm,-,N/A,,Clear,0,2012-10-09 06:53:00
4:53 AM,37.9,37.0,97,30.03,10.0,SSE,5.8,-,N/A,,Clear,160,2012-10-09 09:53:00
5:53 AM,39.0,37.0,93,30.02,10.0,South,5.8,-,N/A,,Clear,170,2012-10-09 10:53:00
6:53 AM,37.9,37.0,97,30.03,10.0,South,6.9,-,N/A,,Clear,170,2012-10-09 11:53:00
7:53 AM,39.0,39.0,100,30.03,10.0,SSE,5.8,-,N/A,,Clear,160,2012-10-09 12:53:00
8:53 AM,46.9,43.0,86,30.03,10.0,SSE,10.4,-,N/A,,Clear,160,2012-10-09 13:53:00
9:53 AM,53.1,44.1,71,30.01,10.0,South,15.0,23.0,N/A,,Clear,180,2012-10-09 14:53:00
10:53 AM,57.9,45.0,62,30.00,10.0,South,15.0,24.2,N/A,,Clear,180,2012-10-09 15:53:00
11:53 AM,61.0,46.9,60,29.97,10.0,South,12.7,19.6,N/A,,Overcast,190,2012-10-09 16:53:00
12:50 PM,60.8,48.2,63,29.96,10.0,South,11.5,21.9,N/A,,Overcast,190,2012-10-09 17:50:00
12:53 PM,61.0,48.0,62,29.95,10.0,South,12.7,-,N/A,,Overcast,190,2012-10-09 17:53:00
1:53 PM,62.1,50.0,65,29.93,10.0,SSW,12.7,-,N/A,,Overcast,200,2012-10-09 18:53:00
2:10 PM,62.6,50.0,63,29.93,10.0,South,15.0,-,N/A,,Overcast,190,2012-10-09 19:10:00
2:53 PM,62.1,50.0,65,29.91,10.0,South,15.0,-,N/A,,Overcast,180,2012-10-09 19:53:00
3:53 PM,62.1,50.0,65,29.91,10.0,South,6.9,-,N/A,,Overcast,170,2012-10-09 20:53:00
4:53 PM,61.0,51.1,70,29.94,10.0,SSW,6.9,-,N/A,,Overcast,200,2012-10-09 21:53:00
5:00 PM,60.8,51.8,72,29.94,10.0,WSW,9.2,-,N/A,,Overcast,240,2012-10-09 22:00:00
5:53 PM,59.0,53.1,81,29.96,10.0,SW,6.9,-,N/A,,Overcast,220,2012-10-09 22:53:00
6:53 PM,59.0,54.0,83,29.96,10.0,Calm,Calm,-,N/A,,Overcast,0,2012-10-09 23:53:00
7:43 PM,57.2,53.6,88,29.98,10.0,Calm,Calm,-,N/A,,Overcast,0,2012-10-10 00:43:00
7:53 PM,57.9,54.0,87,29.99,10.0,Calm,Calm,-,N/A,,Overcast,0,2012-10-10 00:53:00
8:53 PM,57.9,55.0,90,30.01,10.0,West,3.5,-,N/A,,Overcast,280,2012-10-10 01:53:00
9:53 PM,55.0,54.0,96,30.03,8.0,NNE,6.9,-,N/A,,Clear,20,2012-10-10 02:53:00
10:15 PM,55.4,53.6,94,30.05,7.0,North,4.6,-,N/A,,Mostly Cloudy,350,2012-10-10 03:15:00
10:41 PM,53.6,53.6,100,30.06,7.0,NW,3.5,-,N/A,,Scattered Clouds,310,2012-10-10 03:41:00
10:53 PM,52.0,52.0,100,30.05,7.0,WNW,4.6,-,N/A,,Clear,300,2012-10-10 03:53:00
11:53 PM,51.1,51.1,100,30.07,5.0,Calm,Calm,-,N/A,,Clear,0,2012-10-10 04:53:00